DELTA 1 DEB, 7185

Orbit data source: Space-Track

DELTA 1 DEB, 7185 is space debris in SSO originally from a launch on Tue, 06 Nov 1973 UTC launched from the Air Force Western Test Range (AFWTR). Debris objects in space refer to the collection of defunct objects orbiting the Earth. Examples of debris include non-operational satellites, rocket bodies, and fragments generated from explosions, collisions, or faulty payload assembly.

Loading next visibility...
Identifier
7185, 1973-086EW
Orbit
SSO
Country
Flag of USUS
Related business
Manufacturer
Unknown
Mission
Spacecraft
Bus & Motor
Unknown
Mass
Unknown
Launch date (UTC)
1973-11-06 (53 years ago)
Launch vehicle
Unknown
Launch site
Air Force Western Test Range (AFWTR)
Object type
Payload
Rocket body
Debris
Shape & HBR
Unknown shape, 0.1 m
Radar Cross Section
Medium (>0.1 m² and <1 m²)

Expand to show TLE details & history
Last TLE update: 2 days ago

TLE from 2 days ago
0 DELTA 1 DEB
1 07185U 73086EW  26254.33274854  .00000208  00000-0  22174-2 0  9998
2 07185 101.8431  38.5402 0146334 151.6131 237.3942 12.23712090352469
Epoch: 2026-09-11T07:59Z
TLE epoch observation values (Epoch: 2026-09-11T07:59:09.473Z)
Latitude
27.00882°
Longitude
-77.71314°
Altitude
1,643.314 km
Speed
7.024 km/s
True Right ascension
02h 09m 44s
True Declination
26° 53' 07"
Sunlit
Object was in full shadow at epoch
Visualization orbit readout
Latitude
Unknown
Longitude
Unknown
Altitude
Unknown
Speed
Unknown
Apparent Right ascension
Unknown
Apparent Declination
Unknown
Sunlit
N/A
Visualization observer readout
Local Sidereal Time
21:42:49
Azimuth
Unknown
Elevation
Unknown
Doppler factor
Unknown
Orbital elements
Apogee altitude
1,690.367 km
Perigee altitude
1,457.633 km
Semi-major axis
7,952.137 km
Eccentricity
0.01463
Inclination
101.8431°
RAAN
38.5402°
Arg. of periapsis
151.6131°
True anomaly
235.99554°
Mean anomaly
237.3942°
Eccentric anomaly
236.69348°
Mean motion
3.06068 °/min
Orbital period
117.62 mins
BSTAR
0.0022174
Loading maneuver chart data...
Computing Atmospheric mass density...
Loading historical data...
Loading historical data...
Loading historical data...
Loading historical data...
Loading historical data...
Loading historical data...
Loading historical data...

Documentation

Showing up to 5 results
|